Location: Derby
(52.9213°N, 1.4761°W)
Time: 18:32:35
(UTC+01:00)

Tiros 1 - Pass Details

Date: 23 May 2025
Orbit: 620 x 651 km, 48.4° (Epoch: 13 June)

Event Time Altitude Azimuth Distance (km) Brightness Sun altitude
Rises 17:59:02 0° 230° (SW) 2,887 11.2 25.9°
Reaches altitude 10° 18:01:30 10° 221° (SW) 1,985 10.3 25.5°
Maximum altitude 18:05:33 32° 158° (SSE) 1,071 8.3 24.9°
Drops below altitude 10° 18:09:38 10° 96° (E) 2,002 9.2 24.3°
Sets 18:12:08 0° 86° (E) 2,917 9.9 23.9°
